SL-16 DEB, 39907

Orbit data source: Space-Track

SL-16 DEB, 39907 is space debris in LEO originally from a launch on Fri, 26 Mar 1993 UTC launched from the Tyuratam Missile And Space Complex (TTMTR). Debris objects in space refer to the collection of defunct objects orbiting the Earth. Examples of debris include non-operational satellites, rocket bodies, and fragments generated from explosions, collisions, or faulty payload assembly.

Loading next visibility...
Identifier
39907, 1993-016CH
Orbit
LEO
Country
Flag of CISCIS
Related business
Manufacturer
Unknown
Mission
Spacecraft
Bus & Motor
Unknown
Mass
Unknown
Launch date (UTC)
1993-03-26 (33 years ago)
Launch vehicle
Unknown
Launch site
Tyuratam Missile And Space Complex (TTMTR)
Object type
Payload
Rocket body
Debris
Shape & HBR
Unknown shape, 0.1 m
Radar Cross Section
Small (<0.1 m²)

Expand to show TLE details & history
Last TLE update: 3 days ago

TLE from 3 days ago
0 SL-16 DEB
1 39907U 93016CH  25287.59557516  .00000428  00000-0  36090-3 0  9999
2 39907  70.9927 231.9597 0128778 164.4249 196.0882 13.89539976577646
Epoch: 2025-10-14T14:17Z
TLE epoch observation values (Epoch: 2025-10-14T14:17:37.693Z)
Latitude
-0.00004°
Longitude
-5.82911°
Altitude
1,023.149 km
Speed
7.295 km/s
True Right ascension
15h 27m 50s
True Declination
0° 00' 00"
Sunlit
Object was in daylight at epoch
Visualization orbit readout
Latitude
Unknown
Longitude
Unknown
Altitude
Unknown
Speed
Unknown
Apparent Right ascension
Unknown
Apparent Declination
Unknown
Sunlit
N/A
Visualization observer readout
Local Sidereal Time
19:24:17
Azimuth
Unknown
Elevation
Unknown
Doppler factor
Unknown
Orbital elements
Apogee altitude
1,022.283 km
Perigee altitude
834.104 km
Semi-major axis
7,306.331 km
Eccentricity
0.01288
Inclination
70.9927°
RAAN
231.9597°
Arg. of periapsis
164.4249°
True anomaly
195.6855°
Mean anomaly
196.0882°
Eccentric anomaly
195.88623°
Mean motion
3.47532 °/min
Orbital period
103.59 mins
BSTAR
0.0003609
Loading maneuver chart data...
Computing Atmospheric mass density...
Loading historical data...
Loading historical data...
Loading historical data...
Loading historical data...
Loading historical data...
Loading historical data...
Loading historical data...

Documentation

Showing up to 5 results
|